UAE29M OMDB-EDDF

Flight info

Callsign UAE29M
Flight time N/A
Altitude 38000
Route SENPA2F SENPA N571 ALPOB L768 ULADA Q143 MEDGO N697 HIL A788 HLF L604 NADIK/N0486F400 L604 WEJ L677 CVO L617 NOZ L551 ANTAR DCT AKINA DCT RIGRO DCT PEREN UL863 EVIVI DCT OKANA DCT TONDO DCT ARSIN DCT BUDEX DCT IPDUL DCT RAPET T170 VAGAB/N0469F240 T170 GAPLA T178 KERAX KERAX5D
Aircraft A359/H-SDE2E3GHIJ3J4J5LM1ORWXY/LB1D1

Departure

Time 2026-04-23 12:13
Airport Dubai International Airport (OMDB)

Arrival

Time N/A
Airport Frankfurt Main Airport (EDDF)
Time Latitude Longitude Altitude Speed Heading
2026-04-23 11:09 25.25502 55.35129 23 ft 0 kts 211°
2026-04-23 11:57 25.25521 55.35142 29 ft 4 kts 211°
2026-04-23 11:57 25.25544 55.35158 26 ft 4 kts 211°
2026-04-23 11:57 25.25566 55.35175 28 ft 4 kts 227°
2026-04-23 11:57 25.25581 55.35199 28 ft 4 kts 253°
2026-04-23 11:58 25.25582 55.35227 28 ft 4 kts 290°
2026-04-23 11:58 25.25577 55.35240 28 ft 2 kts 302°
2026-04-23 11:58 25.25560 55.35270 26 ft 2 kts 302°
2026-04-23 11:58 25.25559 55.35271 26 ft 0 kts 302°
2026-04-23 12:05 25.25560 55.35269 22 ft 3 kts 302°
2026-04-23 12:06 25.25615 55.35178 27 ft 22 kts 312°
2026-04-23 12:06 25.25694 55.35172 28 ft 10 kts 28°
2026-04-23 12:06 25.25887 55.35301 10 ft 0 kts 29°
2026-04-23 12:07 25.25925 55.35327 11 ft 18 kts 36°
2026-04-23 12:08 25.25993 55.35501 9 ft 26 kts 95°
2026-04-23 12:08 25.25913 55.35664 9 ft 24 kts 122°
2026-04-23 12:08 25.25824 55.35824 11 ft 24 kts 121°
2026-04-23 12:08 25.25737 55.35979 11 ft 24 kts 121°
2026-04-23 12:09 25.25652 55.36133 15 ft 22 kts 122°
2026-04-23 12:09 25.25571 55.36280 15 ft 25 kts 121°
2026-04-23 12:09 25.25475 55.36456 16 ft 27 kts 121°
2026-04-23 12:09 25.25373 55.36636 13 ft 28 kts 121°
2026-04-23 12:10 25.25274 55.36813 19 ft 26 kts 122°
2026-04-23 12:10 25.25181 55.36986 23 ft 25 kts 121°
2026-04-23 12:10 25.25095 55.37139 27 ft 23 kts 122°
2026-04-23 12:10 25.25012 55.37291 28 ft 23 kts 121°
2026-04-23 12:11 25.24932 55.37436 31 ft 22 kts 122°
2026-04-23 12:11 25.24846 55.37589 30 ft 25 kts 122°
2026-04-23 12:11 25.24758 55.37753 31 ft 24 kts 121°
2026-04-23 12:11 25.24680 55.37905 32 ft 17 kts 101°
2026-04-23 12:12 25.24692 55.37959 35 ft 0 kts 47°
2026-04-23 12:12 25.24693 55.37960 36 ft 2 kts 47°
2026-04-23 12:12 25.24771 55.38010 39 ft 16 kts 11°
2026-04-23 12:12 25.24853 55.37934 39 ft 26 kts 303°
2026-04-23 12:13 25.25068 55.37551 39 ft 89 kts 301°
2026-04-23 12:13 25.25490 55.36795 25 ft 143 kts 302°
2026-04-23 12:13 25.26106 55.35722 131 ft 178 kts 305°
2026-04-23 12:13 25.26746 55.34671 897 ft 155 kts 309°
2026-04-23 12:14 25.27349 55.33707 1334 ft 150 kts 310°
2026-04-23 12:14 25.27931 55.32736 1552 ft 159 kts 304°
2026-04-23 12:14 25.28499 55.31610 1712 ft 173 kts 301°
2026-04-23 12:14 25.29111 55.30403 1903 ft 187 kts 303°
2026-04-23 12:15 25.29620 55.29020 2159 ft 204 kts 287°
2026-04-23 12:15 25.29908 55.27466 2633 ft 203 kts 280°
2026-04-23 12:15 25.30063 55.25966 3208 ft 195 kts 278°
2026-04-23 12:15 25.30153 55.24431 3466 ft 205 kts 275°
2026-04-23 12:16 25.30217 55.22815 3638 ft 219 kts 273°
2026-04-23 12:16 25.30279 55.21071 3860 ft 232 kts 272°
2026-04-23 12:16 25.30345 55.19294 4349 ft 232 kts 271°
2026-04-23 12:16 25.30420 55.17479 5053 ft 243 kts 271°
2026-04-23 12:17 25.30504 55.15563 5789 ft 260 kts 270°
2026-04-23 12:17 25.30594 55.13523 6733 ft 267 kts 270°
2026-04-23 12:17 25.30690 55.11451 7729 ft 271 kts 270°
2026-04-23 12:17 25.30788 55.09371 8732 ft 274 kts 270°
2026-04-23 12:18 25.30888 55.07271 9714 ft 277 kts 270°
2026-04-23 12:18 25.30990 55.05112 10457 ft 287 kts 270°
2026-04-23 12:18 25.31092 55.02846 10841 ft 308 kts 270°
2026-04-23 12:18 25.31202 55.00380 11182 ft 329 kts 270°
2026-04-23 12:19 25.31318 54.97819 11635 ft 343 kts 270°
2026-04-23 12:19 25.31444 54.95163 12447 ft 345 kts 270°
2026-04-23 12:19 25.31574 54.92509 13356 ft 346 kts 270°
2026-04-23 12:19 25.31703 54.89842 14141 ft 349 kts 270°
2026-04-23 12:20 25.31827 54.87156 14453 ft 356 kts 270°
2026-04-23 12:20 25.31953 54.84382 14635 ft 364 kts 270°
2026-04-23 12:20 25.32087 54.81551 14774 ft 372 kts 270°
2026-04-23 12:20 25.32217 54.78704 14944 ft 378 kts 270°
2026-04-23 12:21 25.32347 54.75778 15253 ft 380 kts 271°
2026-04-23 12:21 25.32477 54.72882 15588 ft 382 kts 271°
2026-04-23 12:21 25.32609 54.69936 15938 ft 383 kts 271°
2026-04-23 12:21 25.32737 54.67017 16311 ft 383 kts 271°
2026-04-23 12:22 25.32868 54.64052 16701 ft 384 kts 271°
2026-04-23 12:22 25.32997 54.61117 17042 ft 386 kts 271°
2026-04-23 12:22 25.33127 54.58134 17371 ft 387 kts 271°
2026-04-23 12:22 25.33270 54.55186 17705 ft 389 kts 273°
2026-04-23 12:23 25.33685 54.52212 18042 ft 391 kts 280°
2026-04-23 12:23 25.34344 54.49279 18333 ft 393 kts 283°
2026-04-23 12:23 25.35112 54.46399 18587 ft 396 kts 285°
2026-04-23 12:23 25.35947 54.43464 18855 ft 398 kts 285°
2026-04-23 12:24 25.36777 54.40575 19137 ft 399 kts 285°
2026-04-23 12:24 25.37610 54.37639 19412 ft 400 kts 285°
2026-04-23 12:24 25.38432 54.34685 19677 ft 402 kts 285°
2026-04-23 12:24 25.39235 54.31753 19932 ft 403 kts 284°
2026-04-23 12:25 25.40047 54.28753 20193 ft 404 kts 284°
2026-04-23 12:25 25.40834 54.25797 20463 ft 405 kts 284°
2026-04-23 12:25 25.41597 54.22787 20748 ft 406 kts 283°
2026-04-23 12:25 25.42336 54.19777 21003 ft 407 kts 283°
2026-04-23 12:26 25.43079 54.16721 21259 ft 408 kts 283°
2026-04-23 12:26 25.43816 54.13700 21522 ft 410 kts 283°
2026-04-23 12:26 25.44558 54.10674 21789 ft 411 kts 283°
2026-04-23 12:26 25.45315 54.07599 22007 ft 412 kts 283°
2026-04-23 12:27 25.46051 54.04554 22260 ft 413 kts 283°
2026-04-23 12:27 25.46790 54.01470 22500 ft 415 kts 283°
2026-04-23 12:27 25.47522 53.98405 22732 ft 416 kts 283°
2026-04-23 12:27 25.48262 53.95305 22993 ft 417 kts 283°
2026-04-23 12:28 25.49008 53.92187 23222 ft 418 kts 283°
2026-04-23 12:28 25.49746 53.89101 23435 ft 419 kts 283°
2026-04-23 12:28 25.50491 53.85994 23621 ft 420 kts 283°
2026-04-23 12:28 25.51248 53.82831 23822 ft 421 kts 283°
2026-04-23 12:29 25.51990 53.79731 24013 ft 422 kts 283°
2026-04-23 12:29 25.52743 53.76580 24214 ft 423 kts 283°
2026-04-23 12:29 25.53494 53.73445 24399 ft 423 kts 284°
2026-04-23 12:29 25.54252 53.70291 24660 ft 422 kts 283°
2026-04-23 12:30 25.55008 53.67132 24878 ft 423 kts 283°
2026-04-23 12:30 25.55763 53.63973 25047 ft 424 kts 283°
2026-04-23 12:30 25.56514 53.60824 25218 ft 425 kts 283°
2026-04-23 12:30 25.57262 53.57683 25385 ft 426 kts 283°
2026-04-23 12:31 25.58026 53.54476 25597 ft 427 kts 283°
2026-04-23 12:31 25.58774 53.51331 25764 ft 428 kts 283°
2026-04-23 12:31 25.59537 53.48119 25946 ft 429 kts 283°
2026-04-23 12:31 25.60300 53.44908 26125 ft 430 kts 283°
2026-04-23 12:32 25.61053 53.41735 26297 ft 431 kts 283°
2026-04-23 12:32 25.61819 53.38517 26469 ft 432 kts 283°
2026-04-23 12:32 25.62586 53.35280 26646 ft 433 kts 283°
2026-04-23 12:32 25.63340 53.32079 26820 ft 434 kts 283°
2026-04-23 12:33 25.64106 53.28826 26999 ft 435 kts 283°
2026-04-23 12:33 25.64864 53.25599 27178 ft 436 kts 283°
2026-04-23 12:33 25.65630 53.22338 27433 ft 435 kts 283°
2026-04-23 12:33 25.66386 53.19116 27671 ft 435 kts 283°
2026-04-23 12:34 25.67157 53.15833 27788 ft 438 kts 283°
2026-04-23 12:34 25.67920 53.12580 28052 ft 437 kts 283°
2026-04-23 12:34 25.68678 53.09346 28427 ft 434 kts 283°
2026-04-23 12:34 25.69439 53.06096 28821 ft 431 kts 283°
2026-04-23 12:35 25.70261 53.02916 29231 ft 428 kts 287°
2026-04-23 12:35 25.71386 52.99861 29629 ft 427 kts 293°
2026-04-23 12:35 25.72682 52.96918 30013 ft 425 kts 294°
2026-04-23 12:35 25.74012 52.94032 30367 ft 422 kts 295°
2026-04-23 12:36 25.75381 52.91135 30718 ft 420 kts 295°
2026-04-23 12:36 25.76745 52.88272 31076 ft 418 kts 295°
2026-04-23 12:36 25.78091 52.85452 31437 ft 416 kts 295°
2026-04-23 12:36 25.79446 52.82602 31802 ft 414 kts 295°
2026-04-23 12:37 25.80774 52.79801 32179 ft 412 kts 295°
2026-04-23 12:37 25.82091 52.77013 32548 ft 409 kts 295°
2026-04-23 12:37 25.83414 52.74206 32921 ft 406 kts 295°
2026-04-23 12:37 25.84711 52.71450 33299 ft 403 kts 295°
2026-04-23 12:38 25.86001 52.68707 33657 ft 401 kts 295°
2026-04-23 12:38 25.87309 52.65920 33813 ft 405 kts 295°
2026-04-23 12:38 25.88606 52.63154 33933 ft 409 kts 295°
2026-04-23 12:38 25.89918 52.60357 34051 ft 414 kts 295°
2026-04-23 12:39 25.91240 52.57493 34156 ft 417 kts 294°
2026-04-23 12:39 25.92534 52.54579 34288 ft 421 kts 294°
2026-04-23 12:39 25.93806 52.51659 34389 ft 425 kts 294°
2026-04-23 12:39 25.95101 52.48676 34534 ft 428 kts 294°
2026-04-23 12:40 25.97715 52.42681 34713 ft 436 kts 294°
2026-04-23 12:40 25.99053 52.39629 34815 ft 439 kts 294°
2026-04-23 12:40 26.00387 52.36613 34992 ft 441 kts 294°
2026-04-23 12:41 26.01751 52.33559 35248 ft 440 kts 294°
2026-04-23 12:41 26.03118 52.30511 35547 ft 438 kts 294°
2026-04-23 12:41 26.04461 52.27515 35842 ft 436 kts 294°
2026-04-23 12:41 26.05810 52.24503 36265 ft 431 kts 294°
2026-04-23 12:42 26.07144 52.21518 36579 ft 428 kts 294°
2026-04-23 12:42 26.08452 52.18583 36793 ft 427 kts 294°
2026-04-23 12:42 26.09773 52.15613 36911 ft 428 kts 294°
2026-04-23 12:42 26.11091 52.12642 36791 ft 435 kts 294°
2026-04-23 12:43 26.13781 52.06579 37148 ft 434 kts 294°
2026-04-23 12:43 26.15102 52.03604 37443 ft 431 kts 294°
2026-04-23 12:43 26.16427 52.00620 37903 ft 424 kts 293°
2026-04-23 12:44 26.17719 51.97717 38238 ft 421 kts 294°
2026-04-23 12:44 26.19037 51.94790 38374 ft 421 kts 294°
2026-04-23 12:44 26.21665 51.88927 38389 ft 426 kts 293°
2026-04-23 12:45 26.24286 51.82964 38388 ft 432 kts 293°
2026-04-23 12:45 26.26945 51.76922 38383 ft 436 kts 293°
2026-04-23 12:46 26.29646 51.70864 38387 ft 438 kts 293°
2026-04-23 12:46 26.32353 51.64803 38385 ft 439 kts 293°
2026-04-23 12:47 26.35082 51.58697 38385 ft 439 kts 293°
2026-04-23 12:47 26.37702 51.52613 38405 ft 436 kts 289°
2026-04-23 12:48 26.39836 51.46288 38386 ft 435 kts 287°
2026-04-23 12:48 26.41866 51.39949 38386 ft 435 kts 287°
2026-04-23 12:49 26.43894 51.33553 38396 ft 435 kts 287°
2026-04-23 12:49 26.45913 51.27218 38387 ft 434 kts 287°
2026-04-23 12:50 26.47925 51.20928 38387 ft 433 kts 287°
2026-04-23 12:50 26.49947 51.14572 38407 ft 433 kts 287°
2026-04-23 12:51 26.51955 51.08253 38382 ft 432 kts 287°
2026-04-23 12:51 26.53952 51.01962 38392 ft 431 kts 287°
2026-04-23 12:52 26.55947 50.95666 38405 ft 431 kts 287°
2026-04-23 12:52 26.57956 50.89322 38405 ft 431 kts 287°
2026-04-23 12:53 26.59923 50.82997 38390 ft 431 kts 286°
2026-04-23 12:53 26.61871 50.76673 38409 ft 430 kts 287°
2026-04-23 12:54 26.63811 50.70381 38408 ft 430 kts 287°
2026-04-23 12:54 26.65735 50.64076 38409 ft 430 kts 286°
2026-04-23 12:55 26.67598 50.57749 38419 ft 428 kts 285°
2026-04-23 12:55 26.71223 50.45318 38420 ft 427 kts 284°
2026-04-23 12:56 26.75863 50.19610 38427 ft 422 kts 271°
2026-04-23 12:56 26.76076 49.93312 38426 ft 421 kts 270°
2026-04-23 12:57 26.76245 49.69620 38429 ft 419 kts 270°
2026-04-23 12:57 26.76284 49.63130 38428 ft 419 kts 270°
2026-04-23 12:58 26.76324 49.56612 38426 ft 419 kts 270°
2026-04-23 12:58 26.76363 49.50108 38435 ft 418 kts 270°
2026-04-23 12:59 26.76395 49.43617 38432 ft 417 kts 270°
2026-04-23 12:59 26.76426 49.37133 38433 ft 417 kts 270°
2026-04-23 13:00 26.76458 49.30645 38441 ft 417 kts 270°
2026-04-23 13:00 26.76478 49.24200 38447 ft 417 kts 269°
2026-04-23 13:01 26.76496 49.17684 38451 ft 418 kts 269°
2026-04-23 13:01 26.76514 49.11221 38446 ft 417 kts 269°
2026-04-23 13:02 26.76538 48.99616 38447 ft 416 kts 269°
2026-04-23 13:02 26.76559 48.73639 38462 ft 416 kts 269°
2026-04-23 13:03 26.76516 48.65847 38464 ft 416 kts 268°
2026-04-23 13:03 26.76325 48.59396 38465 ft 416 kts 267°
2026-04-23 13:04 26.75926 48.46412 38479 ft 416 kts 267°
2026-04-23 13:04 26.75237 48.21714 38481 ft 416 kts 267°
2026-04-23 13:05 26.74481 47.95761 38502 ft 418 kts 266°
2026-04-23 13:05 26.75182 47.69739 38506 ft 417 kts 271°
2026-04-23 13:06 26.76260 47.47911 38514 ft 417 kts 270°
2026-04-23 13:07 26.76572 47.41423 38516 ft 417 kts 270°
2026-04-23 13:07 26.77185 47.34987 38511 ft 420 kts 275°
2026-04-23 13:08 26.78142 47.28509 38528 ft 421 kts 275°
2026-04-23 13:08 26.79142 47.22089 38518 ft 419 kts 276°
2026-04-23 13:09 26.80140 47.15671 38516 ft 419 kts 275°
2026-04-23 13:09 26.81126 47.09252 38521 ft 420 kts 275°
2026-04-23 13:10 26.82114 47.02773 38520 ft 421 kts 275°
2026-04-23 13:10 26.83093 46.96338 38516 ft 421 kts 275°
2026-04-23 13:11 26.84078 46.89845 38520 ft 422 kts 275°
2026-04-23 13:11 26.85051 46.83407 38519 ft 422 kts 275°
2026-04-23 13:12 26.86031 46.76912 38530 ft 421 kts 275°
2026-04-23 13:12 26.87001 46.70458 38526 ft 421 kts 275°
2026-04-23 13:13 26.87969 46.63998 38525 ft 421 kts 275°
2026-04-23 13:13 26.88933 46.57537 38539 ft 421 kts 275°
2026-04-23 13:14 26.89891 46.51103 38689 ft 420 kts 275°
2026-04-23 13:14 26.90846 46.44678 38895 ft 418 kts 275°
2026-04-23 13:15 26.91799 46.38243 39027 ft 417 kts 275°
2026-04-23 13:15 26.92589 46.32919 39032 ft 419 kts 275°
2026-04-23 13:16 26.93704 46.25364 39029 ft 421 kts 275°
2026-04-23 13:16 26.94655 46.18905 39027 ft 421 kts 275°
2026-04-23 13:17 26.95608 46.12418 39034 ft 422 kts 275°
2026-04-23 13:17 26.96553 46.05961 39023 ft 421 kts 275°
2026-04-23 13:18 26.97343 46.00553 39025 ft 421 kts 275°
2026-04-23 13:18 26.98283 45.94096 39026 ft 421 kts 275°
2026-04-23 13:19 26.99379 45.86530 39027 ft 421 kts 275°
2026-04-23 13:19 27.00161 45.81122 39021 ft 421 kts 275°
2026-04-23 13:20 27.01097 45.74621 39019 ft 421 kts 275°
2026-04-23 13:20 27.02026 45.68157 39020 ft 421 kts 275°
2026-04-23 13:21 27.02951 45.61690 39007 ft 422 kts 275°
2026-04-23 13:21 27.03879 45.55184 39012 ft 422 kts 275°
2026-04-23 13:22 27.04802 45.48702 39010 ft 422 kts 275°
2026-04-23 13:22 27.05717 45.42185 39018 ft 422 kts 274°
2026-04-23 13:23 27.06459 45.35688 39009 ft 421 kts 272°
2026-04-23 13:23 27.07143 45.29148 39011 ft 421 kts 272°
2026-04-23 13:24 27.07841 45.22663 39023 ft 421 kts 273°
2026-04-23 13:24 27.08559 45.16144 39008 ft 421 kts 273°
2026-04-23 13:25 27.09283 45.09601 39002 ft 421 kts 273°
2026-04-23 13:25 27.09999 45.03101 39003 ft 421 kts 273°
2026-04-23 13:26 27.10710 44.96604 39000 ft 420 kts 273°
2026-04-23 13:26 27.11418 44.90112 38998 ft 420 kts 273°
2026-04-23 13:27 27.12126 44.83579 39000 ft 419 kts 273°
2026-04-23 13:27 27.12825 44.77107 38999 ft 419 kts 273°
2026-04-23 13:28 27.13524 44.70617 38991 ft 419 kts 273°
2026-04-23 13:28 27.14217 44.64149 38991 ft 419 kts 273°
2026-04-23 13:29 27.14912 44.57638 38967 ft 419 kts 272°
2026-04-23 13:29 27.15600 44.51172 38986 ft 419 kts 272°
2026-04-23 13:30 27.16289 44.44655 38987 ft 419 kts 272°
2026-04-23 13:30 27.16971 44.38193 38996 ft 418 kts 272°
2026-04-23 13:31 27.17647 44.31727 38988 ft 417 kts 272°
2026-04-23 13:31 27.18315 44.25253 38988 ft 417 kts 272°
2026-04-23 13:32 27.18980 44.18788 38990 ft 417 kts 272°
2026-04-23 13:32 27.19642 44.12336 38985 ft 416 kts 272°
2026-04-23 13:33 27.20300 44.05888 38987 ft 416 kts 272°
2026-04-23 13:33 27.20956 43.99431 38991 ft 416 kts 272°
2026-04-23 13:34 27.21610 43.92976 38989 ft 415 kts 272°
2026-04-23 13:34 27.22258 43.86534 38985 ft 415 kts 272°
2026-04-23 13:35 27.22902 43.80106 38987 ft 415 kts 272°
2026-04-23 13:35 27.23546 43.73658 38983 ft 415 kts 272°
2026-04-23 13:36 27.24189 43.67214 38984 ft 415 kts 272°
2026-04-23 13:36 27.24825 43.60815 38979 ft 415 kts 272°
2026-04-23 13:37 27.25460 43.54349 38981 ft 415 kts 272°
2026-04-23 13:37 27.26091 43.47916 38980 ft 414 kts 272°
2026-04-23 13:38 27.26720 43.41478 38981 ft 415 kts 272°
2026-04-23 13:38 27.27343 43.35066 38972 ft 415 kts 272°
2026-04-23 13:39 27.27971 43.28588 38970 ft 415 kts 272°
2026-04-23 13:39 27.28591 43.22145 38987 ft 415 kts 272°
2026-04-23 13:40 27.29209 43.15705 38974 ft 415 kts 272°
2026-04-23 13:40 27.29820 43.09291 38970 ft 415 kts 272°
2026-04-23 13:41 27.30433 43.02835 38967 ft 415 kts 272°
2026-04-23 13:41 27.31043 42.96381 38963 ft 416 kts 272°
2026-04-23 13:42 27.31650 42.89922 38961 ft 416 kts 272°
2026-04-23 13:42 27.32254 42.83460 38964 ft 416 kts 272°
2026-04-23 13:43 27.32855 42.76998 38962 ft 416 kts 271°
2026-04-23 13:43 27.33453 42.70540 38962 ft 416 kts 271°
2026-04-23 13:44 27.34049 42.64066 38961 ft 416 kts 271°
2026-04-23 13:44 27.34641 42.57607 38968 ft 416 kts 272°
2026-04-23 13:45 27.35229 42.51156 38966 ft 416 kts 272°
2026-04-23 13:45 27.35816 42.44685 38963 ft 416 kts 272°
2026-04-23 13:46 27.36403 42.38190 38968 ft 416 kts 272°
2026-04-23 13:46 27.36981 42.31746 38965 ft 414 kts 272°
2026-04-23 13:47 27.37556 42.25284 38964 ft 415 kts 271°
2026-04-23 13:47 27.38128 42.18822 38980 ft 416 kts 272°
2026-04-23 13:48 27.38701 42.12346 38962 ft 416 kts 272°
2026-04-23 13:48 27.39321 42.05291 38964 ft 415 kts 272°
2026-04-23 13:49 27.39794 41.99871 38964 ft 415 kts 272°
2026-04-23 13:49 27.40351 41.93459 38966 ft 413 kts 272°
2026-04-23 13:50 27.40909 41.86992 38964 ft 413 kts 272°
2026-04-23 13:50 27.41459 41.80601 38960 ft 413 kts 272°
2026-04-23 13:51 27.41979 41.74178 38963 ft 412 kts 270°
2026-04-23 13:51 27.41626 41.67781 38962 ft 408 kts 258°
2026-04-23 13:52 27.39914 41.61728 38941 ft 409 kts 249°
2026-04-23 13:52 27.37623 41.55867 38980 ft 410 kts 248°
2026-04-23 13:53 27.35246 41.50038 38963 ft 410 kts 248°
2026-04-23 13:53 27.32790 41.43981 38959 ft 410 kts 248°
2026-04-23 13:54 27.30448 41.38159 38958 ft 409 kts 248°
2026-04-23 13:54 27.28104 41.32322 38962 ft 409 kts 248°
2026-04-23 13:55 27.25769 41.26516 38958 ft 410 kts 248°
2026-04-23 13:55 27.23412 41.20665 38952 ft 411 kts 248°
2026-04-23 13:56 27.21055 41.14825 38938 ft 411 kts 248°
2026-04-23 13:56 27.18702 41.09000 38935 ft 410 kts 248°
2026-04-23 13:57 27.16347 41.03182 38935 ft 410 kts 247°
2026-04-23 13:57 27.13990 40.97363 38928 ft 410 kts 248°
2026-04-23 13:58 27.11626 40.91534 38929 ft 410 kts 247°
2026-04-23 13:58 27.09263 40.85724 38929 ft 411 kts 247°
2026-04-23 13:59 27.06879 40.79867 38926 ft 411 kts 247°
2026-04-23 13:59 27.04502 40.74034 38920 ft 411 kts 247°
2026-04-23 14:00 27.02527 40.69194 38911 ft 410 kts 247°
2026-04-23 14:00 26.99754 40.62410 38904 ft 409 kts 247°
2026-04-23 14:01 26.97385 40.56621 38906 ft 409 kts 247°
2026-04-23 14:01 26.95043 40.50906 38897 ft 409 kts 247°
2026-04-23 14:02 26.92642 40.45057 38901 ft 409 kts 247°
2026-04-23 14:02 26.90266 40.39276 38869 ft 409 kts 247°
2026-04-23 14:03 26.87883 40.33489 38887 ft 410 kts 247°
2026-04-23 14:03 26.85495 40.27695 38891 ft 410 kts 247°
2026-04-23 14:04 26.83104 40.21903 38896 ft 410 kts 247°
2026-04-23 14:04 26.80717 40.16128 38884 ft 409 kts 247°
2026-04-23 14:05 26.78339 40.10383 38887 ft 409 kts 247°
2026-04-23 14:05 26.75942 40.04602 38890 ft 409 kts 247°
2026-04-23 14:06 26.73536 39.98805 38877 ft 409 kts 247°
2026-04-23 14:06 26.71143 39.93048 38891 ft 408 kts 246°
2026-04-23 14:07 26.68746 39.87289 38870 ft 408 kts 246°
2026-04-23 14:07 26.65154 39.78676 38868 ft 408 kts 247°
2026-04-23 14:08 26.62807 39.73058 38886 ft 409 kts 247°
2026-04-23 14:08 26.60400 39.67301 38900 ft 409 kts 246°
2026-04-23 14:09 26.57998 39.61570 39076 ft 406 kts 247°
2026-04-23 14:09 26.56813 39.58742 39186 ft 404 kts 247°
2026-04-23 14:09 26.55626 39.55913 39314 ft 403 kts 246°
2026-04-23 14:10 26.53238 39.50228 39375 ft 403 kts 246°
2026-04-23 14:10 26.50852 39.44553 39370 ft 405 kts 246°
2026-04-23 14:11 26.48464 39.38881 39371 ft 406 kts 246°
2026-04-23 14:11 26.46050 39.33155 39381 ft 407 kts 246°
2026-04-23 14:12 26.43919 39.27350 39366 ft 405 kts 254°
2026-04-23 14:12 26.42927 39.21174 39369 ft 406 kts 262°
2026-04-23 14:13 26.42375 39.14900 39373 ft 407 kts 263°
2026-04-23 14:13 26.41934 39.08617 39376 ft 408 kts 265°
2026-04-23 14:14 26.42391 39.02251 39371 ft 415 kts 276°
2026-04-23 14:14 26.44101 38.96067 39368 ft 422 kts 284°
2026-04-23 14:15 26.46332 38.89987 39376 ft 424 kts 286°
2026-04-23 14:15 26.48622 38.83934 39379 ft 425 kts 285°
2026-04-23 14:16 26.50867 38.77845 39378 ft 424 kts 285°
2026-04-23 14:16 26.53076 38.71749 39379 ft 424 kts 285°
2026-04-23 14:17 26.55275 38.65647 39382 ft 424 kts 284°
2026-04-23 14:17 26.57488 38.59499 39397 ft 424 kts 284°
2026-04-23 14:18 26.59685 38.53392 39383 ft 424 kts 284°
2026-04-23 14:18 26.61877 38.47289 39369 ft 424 kts 284°
2026-04-23 14:19 26.64071 38.41172 39372 ft 424 kts 284°
2026-04-23 14:19 26.66255 38.35080 39364 ft 424 kts 284°
2026-04-23 14:20 26.68447 38.28946 39362 ft 424 kts 284°
2026-04-23 14:20 26.70612 38.22862 39355 ft 424 kts 284°
2026-04-23 14:21 26.72800 38.16708 39370 ft 424 kts 284°
2026-04-23 14:21 26.74970 38.10601 39381 ft 425 kts 284°
2026-04-23 14:22 26.77145 38.04469 39378 ft 425 kts 284°
2026-04-23 14:22 26.79319 37.98335 39375 ft 425 kts 284°
2026-04-23 14:23 26.81506 37.92166 39375 ft 425 kts 284°
2026-04-23 14:23 26.83672 37.86022 39375 ft 426 kts 284°
2026-04-23 14:24 26.85837 37.79872 39394 ft 426 kts 284°
2026-04-23 14:24 26.88012 37.73712 39388 ft 426 kts 284°
2026-04-23 14:25 26.90182 37.67530 39389 ft 425 kts 284°
2026-04-23 14:25 26.92332 37.61395 39399 ft 425 kts 284°
2026-04-23 14:26 26.94502 37.55195 39391 ft 426 kts 284°
2026-04-23 14:26 26.96657 37.49030 39392 ft 426 kts 284°
2026-04-23 14:27 26.98815 37.42849 39394 ft 425 kts 284°
2026-04-23 14:27 27.00953 37.36719 39395 ft 425 kts 284°
2026-04-23 14:28 27.03095 37.30562 39386 ft 423 kts 284°
2026-04-23 14:28 27.05237 37.24391 39384 ft 424 kts 284°
2026-04-23 14:29 27.07366 37.18254 39377 ft 423 kts 283°
2026-04-23 14:29 27.09499 37.12096 39371 ft 423 kts 283°
2026-04-23 14:30 27.11620 37.05961 39371 ft 423 kts 283°
2026-04-23 14:30 27.13740 36.99815 39364 ft 423 kts 283°
2026-04-23 14:31 27.15874 36.93626 39356 ft 423 kts 283°
2026-04-23 14:31 27.17990 36.87488 39354 ft 423 kts 283°
2026-04-23 14:32 27.20106 36.81323 39362 ft 423 kts 283°
2026-04-23 14:32 27.22208 36.75179 39357 ft 423 kts 283°
2026-04-23 14:33 27.24318 36.69016 39343 ft 423 kts 283°
2026-04-23 14:33 27.26424 36.62860 39327 ft 423 kts 283°
2026-04-23 14:34 27.28528 36.56688 39334 ft 421 kts 283°
2026-04-23 14:34 27.30619 36.50544 39319 ft 422 kts 283°
2026-04-23 14:35 27.32718 36.44368 39303 ft 422 kts 283°
2026-04-23 14:35 27.34804 36.38223 39306 ft 422 kts 283°
2026-04-23 14:36 27.36894 36.32054 39305 ft 422 kts 283°
2026-04-23 14:36 27.38994 36.25848 39305 ft 422 kts 283°
2026-04-23 14:37 27.41074 36.19691 39300 ft 422 kts 283°
2026-04-23 14:37 27.43152 36.13537 39314 ft 422 kts 283°
2026-04-23 14:38 27.45226 36.07370 39316 ft 423 kts 283°
2026-04-23 14:38 27.47316 36.01155 39315 ft 424 kts 283°
2026-04-23 14:39 27.49392 35.94967 39320 ft 424 kts 283°
2026-04-23 14:39 27.51478 35.88745 39316 ft 423 kts 283°
2026-04-23 14:40 27.53544 35.82560 39316 ft 424 kts 283°
2026-04-23 14:40 27.55624 35.76322 39312 ft 424 kts 283°
2026-04-23 14:41 27.57687 35.70130 39312 ft 424 kts 283°
2026-04-23 14:41 27.59762 35.63891 39307 ft 425 kts 283°
2026-04-23 14:42 27.61822 35.57688 39305 ft 425 kts 283°
2026-04-23 14:42 27.63894 35.51438 39296 ft 425 kts 283°
2026-04-23 14:43 27.65959 35.45198 39296 ft 426 kts 283°
2026-04-23 14:43 27.68034 35.38915 39282 ft 426 kts 283°
2026-04-23 14:44 27.70094 35.32670 39271 ft 427 kts 283°
2026-04-23 14:44 27.72168 35.26371 39271 ft 427 kts 283°
2026-04-23 14:45 27.74225 35.20110 39261 ft 427 kts 283°
2026-04-23 14:45 27.76283 35.13835 39253 ft 427 kts 283°
2026-04-23 14:46 27.78346 35.07538 39252 ft 427 kts 283°
2026-04-23 14:46 27.80405 35.01251 39246 ft 428 kts 283°
2026-04-23 14:47 27.82456 34.94963 39249 ft 427 kts 283°
2026-04-23 14:47 27.84504 34.88670 39255 ft 428 kts 283°
2026-04-23 14:48 27.86210 34.83420 39269 ft 428 kts 283°
2026-04-23 14:48 27.88264 34.77090 39268 ft 428 kts 283°
2026-04-23 14:49 27.90307 34.70789 39276 ft 428 kts 283°
2026-04-23 14:49 27.92347 34.64481 39291 ft 429 kts 283°
2026-04-23 14:50 27.94388 34.58162 39300 ft 429 kts 283°
2026-04-23 14:50 27.96440 34.51794 39305 ft 429 kts 283°
2026-04-23 14:51 27.98488 34.45466 39301 ft 431 kts 284°
2026-04-23 14:51 28.01331 34.39413 39303 ft 446 kts 297°
2026-04-23 14:52 28.05155 34.33829 39308 ft 451 kts 300°
2026-04-23 14:52 28.09153 34.28338 39297 ft 452 kts 300°
2026-04-23 14:53 28.13151 34.22866 39323 ft 452 kts 300°
2026-04-23 14:53 28.17154 34.17339 39350 ft 452 kts 301°
2026-04-23 14:54 28.21121 34.11836 39346 ft 452 kts 301°
2026-04-23 14:54 28.25090 34.06311 39360 ft 452 kts 300°
2026-04-23 14:55 28.29037 34.00814 39360 ft 450 kts 301°
2026-04-23 14:55 28.32988 33.95311 39385 ft 450 kts 300°
2026-04-23 14:56 28.36954 33.89778 39356 ft 452 kts 301°
2026-04-23 14:56 28.40918 33.84236 39363 ft 453 kts 301°
2026-04-23 14:57 28.44880 33.78692 39353 ft 453 kts 301°
2026-04-23 14:57 28.48865 33.73109 39338 ft 453 kts 301°
2026-04-23 14:58 28.52817 33.67565 39350 ft 453 kts 301°
2026-04-23 14:58 28.56786 33.61988 39367 ft 454 kts 301°
2026-04-23 14:59 28.60745 33.56415 39348 ft 455 kts 301°
2026-04-23 14:59 28.64718 33.50823 39352 ft 455 kts 301°
2026-04-23 15:00 28.68691 33.45220 39342 ft 455 kts 301°
2026-04-23 15:00 28.72677 33.39590 39346 ft 455 kts 301°
2026-04-23 15:01 28.76628 33.34001 39339 ft 455 kts 301°
2026-04-23 15:01 28.80596 33.28383 39342 ft 455 kts 301°
2026-04-23 15:02 28.85037 33.22085 39336 ft 455 kts 301°
2026-04-23 15:02 28.89013 33.16438 39337 ft 455 kts 301°
2026-04-23 15:03 28.92967 33.10815 39333 ft 456 kts 301°
2026-04-23 15:03 28.96926 33.05177 39335 ft 456 kts 301°
2026-04-23 15:04 29.00909 32.99498 39330 ft 456 kts 301°
2026-04-23 15:04 29.04848 32.93874 39343 ft 456 kts 301°
2026-04-23 15:05 29.08821 32.88194 39350 ft 456 kts 301°
2026-04-23 15:05 29.12773 32.82533 39354 ft 457 kts 301°
2026-04-23 15:06 29.16730 32.76861 39354 ft 458 kts 301°
2026-04-23 15:06 29.20716 32.71140 39362 ft 458 kts 301°
2026-04-23 15:07 29.24654 32.65479 39361 ft 458 kts 301°
2026-04-23 15:07 29.28631 32.59753 39385 ft 458 kts 301°
2026-04-23 15:08 29.32575 32.54041 39377 ft 458 kts 301°
2026-04-23 15:09 29.38488 32.45397 39390 ft 459 kts 301°
2026-04-23 15:09 29.42406 32.39673 39403 ft 459 kts 301°
2026-04-23 15:10 29.45707 32.34847 39406 ft 459 kts 301°
2026-04-23 15:10 29.50293 32.28134 39411 ft 460 kts 302°
2026-04-23 15:11 29.53578 32.23320 39415 ft 460 kts 302°
2026-04-23 15:11 29.57521 32.17532 39423 ft 460 kts 302°
2026-04-23 15:12 29.62104 32.10797 39424 ft 460 kts 302°
2026-04-23 15:12 29.65396 32.05950 39444 ft 460 kts 302°
2026-04-23 15:13 29.69323 32.00161 39432 ft 460 kts 302°
2026-04-23 15:13 29.73891 31.93419 39433 ft 460 kts 302°